Temperature
5 5 5 5 4 4 4 4 3 3 3 4 4 4 4 4 4 4 4 4 4 4 4 4 4 4 4 4 4 4 4 4 4 4 4 4 4 4
4 4 4 4 4 4 4 3 3 3 3 3 3 3 3 3 3 3 3 3 4 4 4 4 4 4 4 4 4 4 4 4 3 4 4 4 4 4
4 4 4 3 3 3 3 3 3 3 2 3 3 3 3 3 3 3 3 3 3 3 3 3 3 3 3 3 3 3 3 3 3 3 3 3 3 3
3 3 3 3 3 2 2 3 2 2 2 2 2 2 2 2 2 2 2 2 2 2 2 2 2 2 2 2 2 2 2 2 2 2 2 2 2 3
2 2 2 2 2 2 2 2 2 2 2 2 2 2 2 2 1 2 2 2 1 1 2 1 1 2 2 2 2 2 2 2 2 2 2 2 2 2
2 2 1 1 1 1 1 1 1 1 1 1 1 1 1 1 1 1 1 1 1 1 1 1 1 1 1 1 1 1 1 1 1 1 1 1 1 1
1 1 1 1 1 1 1 1 1 1 1 1 0 0 0 0 0 0 -0 -0 -0 -0 -0 0 0 0 0 0 0 0 0 0 0 0 0 0 1 1
1 0 0 0 0 0 0 0 0 0 0 -0 -0 -0 -0 -0 -1 -1 -1 -1 -1 -1 -1 -1 -1 -1 -1 -1 -1 -1 -0 -0 -0 -0 -0 -0 0 0
0 -0 -0 -0 -0 -0 -0 -0 -1 -1 -1 -1 -1 -1 -1 -1 -1 -1 -1 -1 -1 -1 -1 -1 -1 -1 -1 -1 -1 -1 -1 -1 -1 -1 -1 -0 -0 -0
-0 -1 -1 -1 -1 -1 -1 -1 -1 -1 -1 -1 -1 -2 -2 -2 -2 -2 -2 -2 -2 -2 -2 -2 -2 -2 -1 -2 -2 -2 -2 -1 -1 -1 -1 -1 -1 -1
-1 -1 -1 -1 -1 -1 -1 -2 -1 -1 -2 -2 -2 -2 -2 -2 -2 -2 -2 -3 -3 -2 -2 -3 -2 -2 -2 -2 -2 -2 -2 -2 -2 -2 -2 -2 -1 -1
-1 -1 -2 -2 -2 -2 -2 -2 -2 -2 -2 -2 -2 -2 -2 -2 -3 -3 -3 -3 -3 -3 -3 -3 -3 -3 -3 -3 -3 -2 -2 -2 -2 -2 -2 -2 -2 -2
-2 -2 -2 -2 -2 -3 -3 -3 -3 -3 -3 -3 -3 -3 -3 -3 -3 -3 -3 -3 -3 -3 -3 -3 -4 -4 -4 -4 -3 -3 -3 -3 -3 -3 -3 -3 -3 -3
-3 -3 -3 -3 -3 -3 -3 -3 -4 -4 -4 -4 -4 -4 -4 -4 -4 -4 -4 -4 -4 -4 -4 -4 -4 -4 -4 -4 -4 -4 -3 -3 -3 -3 -3 -3 -3 -3
-4 -4 -4 -4 -4 -4 -4 -4 -4 -4 -4 -4 -4 -4 -4 -4 -4 -4 -4 -4 -4 -4 -4 -4 -4 -4 -5 -5 -5 -4 -4 -4 -4 -4 -4 -4 -4 -3
-4 -4 -4 -4 -4 -4 -4 -4 -4 -5 -5 -5 -5 -5 -5 -5 -5 -5 -5 -5 -5 -4 -4 -5 -5 -5 -5 -5 -5 -5 -5 -5 -4 -4 -4 -4 -4 -4
-5 -5 -5 -5 -5 -5 -5 -5 -5 -5 -5 -5 -6 -6 -6 -6 -6 -6 -6 -6 -6 -5 -5 -5 -5 -5 -5 -5 -5 -5 -5 -5 -5 -5 -5 -5 -4 -4
-5 -5 -5 -5 -6 -6 -6 -5 -5 -5 -6 -6 -6 -6 -6 -6 -6 -6 -6 -6 -6 -6 -6 -6 -6 -6 -6 -5 -5 -5 -5 -5 -5 -5 -5 -5 -5 -5
-6 -6 -6 -6 -6 -6 -6 -6 -6 -6 -6 -6 -7 -7 -7 -7 -7 -7 -7 -7 -7 -7 -6 -6 -6 -6 -6 -6 -6 -6 -6 -6 -6 -6 -6 -6 -5 -5
-6 -6 -6 -6 -6 -7 -7 -7 -7 -7 -7 -7 -7 -7 -7 -7 -7 -7 -7 -7 -7 -7 -7 -7 -7 -7 -7 -7 -7 -6 -6 -6 -6 -6 -6 -6 -6 -5
-7 -7 -7 -7 -7 -7 -7 -7 -7 -7 -7 -7 -7 -7 -7 -7 -7 -7 -7 -7 -7 -7 -7 -7 -7 -7 -7 -7 -7 -6 -6 -6 -7 -7 -7 -7 -6 -6
-7 -7 -7 -7 -7 -7 -7 -7 -7 -7 -7 -7 -7 -8 -8 -8 -7 -7 -7 -7 -7 -7 -7 -7 -7 -7 -7 -7 -7 -7 -7 -7 -7 -7 -7 -7 -7 -7
-7 -7 -7 -7 -7 -7 -7 -7 -7 -7 -7 -8 -8 -8 -8 -8 -8 -8 -8 -8 -8 -8 -7 -7 -7 -7 -7 -7 -7 -7 -7 -7 -7 -7 -7 -7 -7 -7
Wind_Speed
2 2 2 1 2 2 2 2 3 3 4 3 2 2 3 4 4 4 5 7 8 8 8 9 9 10 11 10 10 10 11 11 12 12 12 11 11 11
2 2 2 2 2 2 2 2 2 3 4 3 3 3 3 5 6 6 6 8 9 9 9 9 9 10 10 10 10 11 11 12 11 12 11 11 11 11
2 2 2 2 2 2 2 2 2 3 5 4 3 3 3 4 5 6 7 7 7 9 10 10 10 10 10 10 10 10 10 10 10 10 11 11 12 12
2 2 2 2 2 2 2 2 3 3 3 5 4 3 4 4 4 4 6 6 6 9 10 11 11 10 10 10 10 10 10 10 10 10 11 11 11 12
2 3 3 2 3 2 3 3 3 3 3 4 5 4 4 4 4 4 4 4 6 8 10 10 11 10 10 10 10 10 10 10 10 10 11 11 11 12
2 3 3 4 4 4 4 4 3 3 3 4 5 4 4 4 3 3 4 3 4 5 8 9 9 10 10 10 10 9 9 9 9 10 10 10 11 12
3 3 4 4 5 5 5 4 4 4 4 4 5 4 4 3 4 3 4 4 4 3 3 4 5 5 7 9 9 9 9 9 10 10 10 11 11 11
4 4 4 5 6 7 8 8 7 6 5 5 5 6 6 4 3 4 4 4 4 2 3 5 3 5 4 5 9 10 10 10 10 10 11 11 11 11
4 4 5 5 5 4 6 8 8 10 9 6 6 6 6 5 4 5 5 6 6 4 4 6 4 5 5 7 10 11 10 11 10 10 10 11 11 11
4 5 5 5 5 5 5 5 6 6 7 6 6 6 6 5 5 5 6 6 5 3 3 5 4 5 5 5 9 10 11 11 11 11 10 10 10 11
4 4 5 5 7 8 5 5 6 6 8 9 9 9 10 10 7 3 3 5 6 5 2 3 4 4 4 4 6 9 9 9 9 10 10 10 11 10
3 4 6 7 8 8 5 5 7 6 5 5 6 7 6 7 8 5 4 5 5 4 2 2 3 2 3 3 3 4 5 8 10 10 10 11 10 6
4 3 4 8 9 9 8 6 8 7 5 4 4 4 4 4 4 4 4 4 5 5 3 2 3 3 4 4 3 4 3 4 5 6 8 10 10 8
4 4 5 9 10 10 8 8 10 8 3 3 4 4 4 4 3 3 4 5 5 6 6 4 4 4 5 6 5 3 3 4 4 4 4 8 9 10
4 8 9 10 9 7 8 10 7 3 3 3 4 4 3 3 3 3 3 4 5 6 6 6 4 4 5 6 6 5 5 4 4 3 3 4 4 5
5 7 9 9 7 7 6 5 3 3 4 4 3 3 3 3 3 3 3 3 4 4 4 4 5 5 5 6 6 6 5 4 3 3 4 4 4 5
4 3 3 3 4 4 4 4 3 3 4 3 3 3 3 3 4 3 3 3 4 4 4 3 3 4 5 5 6 6 5 5 5 4 4 5 5 5
5 3 4 4 4 4 4 4 4 4 4 3 3 4 4 4 4 3 3 4 4 4 4 4 3 3 3 3 5 5 5 5 4 4 3 4 5 4
4 4 4 4 5 4 4 4 4 4 3 3 4 4 4 4 4 4 4 4 4 4 4 3 3 3 4 5 4 3 3 4 3 3 3 4 5 5
3 4 5 5 4 4 4 4 5 4 4 4 4 4 4 4 4 4 4 4 4 4 4 4 4 4 4 5 4 4 5 4 3 3 3 3 4 7
4 4 4 5 5 4 4 4 5 5 4 4 4 4 4 4 4 5 4 6 5 4 5 5 4 5 2 2 3 3 3 5 5 4 3 3 4 4
5 5 5 5 5 5 4 4 4 5 5 4 4 4 4 4 4 5 4 4 4 4 4 4 3 2 2 3 4 4 4 4 5 7 6 6 4 3
5 5 5 5 5 4 4 5 5 5 4 4 4 4 4 4 4 4 4 4 3 4 3 3 3 2 3 3 3 3 4 4 3 3 4 6 7 9
Wind_Direction
200 210 212 217 209 224 233 219 226 261 270 259 275 293 290 279 272 268 275 290 288 283 286 291 295 297 303 300 287 286 286 287 287 284 282 283 286 289
199 198 216 224 230 234 234 240 233 244 266 273 275 292 298 298 292 284 279 288 290 293 289 287 289 293 298 300 296 289 285 282 283 283 282 284 285 285
219 203 223 229 239 240 233 235 246 248 265 283 285 291 290 289 295 285 282 277 275 287 291 287 287 287 291 295 297 297 295 290 287 286 286 285 284 284
245 227 232 246 246 244 238 240 248 248 259 278 290 283 280 278 276 279 289 287 278 283 288 291 285 283 285 289 293 295 297 295 291 289 288 288 288 287
256 250 244 242 250 252 251 248 257 268 257 265 280 283 285 286 287 289 287 286 285 287 289 288 289 288 288 291 291 293 294 295 294 292 290 290 291 292
267 254 246 243 242 243 250 246 252 260 261 263 272 280 281 281 276 285 295 290 290 293 291 290 291 296 292 292 292 292 292 295 295 295 294 292 291 290
281 269 262 262 264 258 260 250 246 251 258 263 269 277 273 272 270 273 281 291 287 280 288 288 288 284 289 290 290 289 290 292 294 295 294 293 293 292
283 281 278 271 274 276 275 272 263 252 253 258 266 264 266 267 274 281 282 291 290 277 291 289 277 280 274 278 289 290 288 290 291 291 291 290 289 290
275 277 280 280 286 273 277 279 275 270 264 261 261 263 266 261 262 270 270 274 275 272 287 284 278 278 277 282 291 291 291 290 291 292 290 289 288 290
269 267 269 267 270 270 265 267 265 266 265 265 256 258 263 255 242 255 264 279 281 269 265 277 280 277 279 274 282 285 291 293 293 293 294 294 293 292
280 276 273 266 278 284 277 272 277 275 274 270 274 276 276 275 272 267 270 279 284 277 253 260 275 283 280 270 271 283 288 297 303 302 300 298 297 295
293 286 285 285 287 291 279 269 272 274 276 279 279 278 273 267 267 250 244 260 279 279 245 251 273 297 290 268 258 280 288 296 299 300 301 302 304 304
295 296 291 294 290 290 289 273 274 281 274 270 271 268 268 259 254 255 251 248 263 268 253 265 274 275 271 284 284 271 272 287 291 293 297 300 303 303
286 286 290 297 295 296 294 290 291 296 282 273 274 270 266 268 272 270 273 272 266 267 257 253 263 263 276 283 282 282 282 283 281 280 285 296 297 297
286 292 300 304 304 300 294 294 294 286 277 273 271 273 275 274 282 288 288 285 287 280 264 259 257 261 263 272 277 282 291 285 270 270 277 275 274 286
294 296 302 304 304 299 296 292 285 275 278 270 274 281 287 284 283 284 287 293 296 296 293 277 256 253 265 270 271 277 276 272 282 280 283 280 281 277
296 294 292 293 290 289 288 285 280 280 283 281 279 286 290 291 292 290 284 286 284 286 295 296 284 269 260 258 267 266 268 274 274 275 284 289 283 272
294 279 278 279 280 281 284 288 286 280 275 277 273 272 274 278 285 290 284 275 274 277 280 281 288 300 301 285 248 252 261 269 274 273 273 280 288 284
280 271 274 278 279 279 279 280 280 280 276 274 272 271 272 274 275 277 278 277 273 272 272 270 270 274 283 287 284 248 257 275 284 284 276 273 282 289
267 270 275 279 279 279 278 277 279 280 276 270 268 268 267 268 271 271 271 270 271 275 277 268 258 254 257 267 280 285 280 272 269 273 280 281 280 287
271 271 272 275 275 273 273 272 273 274 272 269 266 264 263 265 268 268 269 270 271 267 267 269 266 275 280 285 282 282 287 289 286 275 273 284 291 292
269 272 273 274 272 269 268 267 270 272 270 267 267 263 262 263 266 268 267 265 264 267 273 278 275 278 277 270 275 281 294 304 308 305 292 276 268 272
267 268 270 273 270 268 264 263 264 268 267 265 267 264 262 266 265 263 264 263 265 270 273 278 287 282 278 271 272 280 287 297 304 308 298 293 283 276
Height
1494 1494 1495 1496 1497 1497 1498 1498 1499 1497 1495 1495 1495 1495 1495 1494 1493 1492 1491 1491 1490 1489 1487 1486 1485 1484 1482 1481 1480 1479 1479 1478 1478 1477 1477 1476 1476 1476
1490 1491 1491 1492 1492 1493 1493 1494 1494 1494 1492 1491 1491 1491 1491 1490 1489 1488 1487 1486 1485 1484 1483 1482 1481 1479 1478 1476 1475 1474 1474 1473 1472 1472 1471 1471 1471 1471
1486 1487 1487 1488 1488 1489 1489 1489 1489 1489 1487 1486 1487 1486 1486 1485 1484 1483 1482 1481 1480 1479 1478 1477 1476 1475 1474 1472 1470 1469 1468 1468 1467 1466 1466 1466 1465 1466
1481 1482 1482 1483 1483 1484 1484 1484 1484 1484 1484 1482 1481 1481 1481 1480 1479 1478 1477 1476 1475 1475 1473 1472 1471 1470 1469 1467 1466 1465 1464 1463 1462 1461 1461 1460 1460 1460
1477 1477 1478 1478 1478 1479 1479 1479 1479 1479 1479 1477 1476 1476 1476 1475 1474 1473 1472 1471 1470 1469 1468 1467 1466 1465 1464 1463 1462 1460 1459 1458 1457 1456 1456 1455 1454 1454
1473 1474 1474 1474 1475 1475 1475 1474 1474 1474 1474 1473 1472 1471 1470 1470 1469 1467 1466 1466 1465 1464 1463 1462 1461 1459 1459 1458 1457 1455 1454 1453 1452 1451 1450 1449 1449 1448
1469 1469 1470 1470 1471 1471 1470 1470 1470 1469 1469 1468 1467 1466 1465 1465 1464 1463 1461 1460 1459 1459 1457 1456 1455 1454 1453 1452 1451 1450 1449 1448 1447 1446 1445 1444 1443 1443
1464 1464 1465 1465 1465 1465 1465 1465 1465 1465 1464 1463 1462 1461 1460 1460 1459 1458 1457 1455 1453 1454 1453 1451 1451 1449 1448 1447 1446 1445 1444 1443 1442 1441 1440 1439 1438 1438
1459 1460 1460 1460 1460 1460 1459 1460 1459 1459 1459 1459 1457 1456 1455 1455 1454 1453 1452 1451 1449 1448 1448 1445 1445 1444 1443 1442 1441 1440 1439 1438 1437 1436 1435 1434 1433 1432
1455 1455 1455 1455 1455 1455 1454 1453 1453 1453 1453 1453 1452 1451 1451 1450 1449 1448 1447 1445 1444 1443 1443 1440 1439 1438 1438 1436 1436 1435 1434 1433 1431 1430 1429 1428 1427 1426
1451 1451 1450 1450 1450 1450 1449 1448 1447 1447 1447 1447 1446 1446 1445 1445 1444 1443 1442 1440 1438 1437 1437 1436 1434 1433 1431 1431 1430 1430 1429 1428 1426 1425 1424 1423 1422 1421
1447 1446 1446 1445 1445 1445 1444 1443 1442 1441 1441 1440 1440 1439 1439 1438 1438 1438 1437 1435 1433 1432 1432 1432 1430 1429 1426 1425 1425 1425 1424 1422 1421 1420 1419 1418 1417 1416
1442 1441 1441 1441 1440 1440 1439 1438 1437 1437 1435 1434 1433 1433 1433 1432 1432 1431 1431 1431 1429 1428 1428 1427 1425 1425 1423 1420 1419 1419 1418 1417 1416 1414 1414 1413 1412 1411
1438 1437 1436 1436 1435 1435 1434 1433 1432 1432 1430 1429 1428 1427 1427 1426 1426 1425 1425 1425 1424 1424 1423 1422 1421 1420 1418 1416 1414 1413 1413 1412 1411 1409 1409 1408 1407 1406
1434 1433 1432 1431 1430 1430 1429 1428 1427 1426 1425 1424 1423 1422 1422 1421 1421 1420 1419 1419 1418 1418 1417 1417 1416 1415 1414 1412 1410 1408 1407 1406 1406 1405 1404 1403 1402 1401
1430 1429 1428 1427 1426 1425 1424 1424 1423 1422 1421 1420 1419 1418 1417 1416 1416 1415 1414 1413 1412 1411 1412 1411 1411 1410 1409 1408 1406 1404 1403 1402 1401 1400 1399 1398 1397 1396
1426 1425 1423 1422 1421 1421 1420 1419 1418 1417 1416 1415 1414 1413 1412 1411 1411 1410 1410 1408 1407 1406 1405 1406 1406 1405 1404 1403 1401 1400 1399 1398 1397 1396 1394 1393 1392 1392
1422 1420 1419 1418 1417 1416 1415 1414 1413 1413 1412 1411 1410 1409 1408 1407 1406 1406 1405 1404 1403 1402 1401 1401 1400 1399 1399 1398 1398 1396 1395 1393 1392 1392 1391 1389 1387 1387
1417 1416 1415 1414 1413 1412 1411 1410 1409 1409 1408 1407 1406 1405 1404 1403 1402 1401 1400 1400 1399 1398 1397 1397 1396 1395 1394 1392 1392 1393 1391 1389 1388 1387 1386 1385 1383 1382
1413 1412 1411 1410 1409 1408 1408 1407 1405 1404 1404 1403 1402 1401 1400 1399 1398 1397 1396 1396 1395 1394 1393 1393 1392 1392 1391 1390 1388 1387 1387 1386 1384 1383 1382 1381 1379 1379
1408 1407 1407 1406 1405 1404 1403 1403 1402 1400 1399 1399 1398 1397 1396 1395 1394 1393 1393 1392 1391 1390 1389 1388 1388 1388 1387 1386 1385 1382 1383 1382 1381 1380 1378 1377 1375 1374
1404 1403 1403 1402 1401 1400 1399 1398 1397 1396 1395 1394 1394 1393 1392 1391 1390 1389 1389 1388 1387 1386 1385 1385 1384 1384 1383 1382 1381 1379 1378 1378 1377 1376 1375 1374 1373 1370
1399 1399 1398 1397 1397 1396 1395 1394 1393 1392 1391 1390 1389 1389 1388 1387 1386 1386 1385 1384 1384 1383 1382 1381 1380 1380 1379 1379 1378 1376 1375 1374 1373 1372 1371 1371 1370 1368